Weather History for Newton, KS

Change the Weather History Date:

Saturday, October 26, 2013

  Actual Average Record
Temperature  
Mean Temperature 47 °F -  
Max Temperature 55 °F 60 °F 87 °F (2014)
Min Temperature 10 °F 42 °F 10 °F (2013)
Degree Days  
Heating Degree Days 18    
Moisture  
Dew Point 34 °F    
Average Humidity 61    
Maximum Humidity 76    
Minimum Humidity 37    
Precipitation  
Precipitation 0.00 in - - ()
Sea Level Pressure  
Sea Level Pressure 30.16 in    
Wind  
Wind Speed 12 mph (NNW)    
Max Wind Speed 22 mph    
Max Gust Speed 26 mph    
Visibility 10 miles    
Events      
Averages and records for this station are not official NWS values.
T = Trace of Precipitation, MM = Missing Value Source: NWS Daily Summary

Daily Weather History Graph

Daily Weather History Graph

Search for Another Location

Airport:

Trip Planner

Search our weather history database for the weather conditions in past years. The results will help you decide how hot, cold, wet, or windy it might be!

Date:

Astronomy

Oct. 26, 2013 Rise Set
Actual Time 7:48 AM CDT 6:36 PM CDT
Civil Twilight 7:21 AM CDT 7:03 PM CDT
Nautical Twilight 6:51 AM CDT 7:34 PM CDT
Astronomical Twilight 6:20 AM CDT 8:04 PM CDT
Moon No Moon Rise 2:04 PM CDT (10/26)
Length of Visible Light 11h 41m
Length of Day
10h 47m
Waning Gibbous, 53% of the Moon is Illuminated
Oct 26
Waning Gibbous
Oct 26
Last Quarter
Nov 3
New
Nov 9
First Quarter
Nov 17
Full

Hourly Weather History & Observations

Time (CDT) Temp. Windchill Dew Point Humidity Pressure Visibility Wind Dir Wind Speed Gust Speed Precip Events Conditions
12:15 AM - - - N/A% 30.15 in 10.0 mi SSW 15.0 mph - N/A   Clear
12:35 AM - - - N/A% 30.15 in 10.0 mi SSW 11.5 mph 19.6 mph N/A   Clear
12:55 AM - - - N/A% 30.14 in 10.0 mi SSW 15.0 mph 19.6 mph N/A   Clear
1:15 AM - - - N/A% 30.14 in 10.0 mi SSW 13.8 mph - N/A   Clear
1:35 AM - - - N/A% 30.14 in 10.0 mi SSW 15.0 mph 18.4 mph N/A   Clear
1:55 AM 48.2 °F - 37.4 °F 66% 30.14 in 10.0 mi SSW 13.8 mph - N/A   Clear
2:15 AM 48.2 °F - 37.4 °F 66% 30.13 in 10.0 mi SSW 13.8 mph - N/A   Partly Cloudy
2:35 AM 48.2 °F - 37.4 °F 66% 30.13 in 10.0 mi SSW 13.8 mph 19.6 mph N/A   Partly Cloudy
2:55 AM 48.2 °F - 37.4 °F 66% 30.12 in 10.0 mi SSW 13.8 mph - N/A   Clear
3:15 AM - - - N/A% 30.11 in 10.0 mi SSW 16.1 mph - N/A   Clear
3:35 AM - - - N/A% 30.11 in 10.0 mi SSW 15.0 mph - N/A   Clear
3:55 AM - - - N/A% 30.11 in 10.0 mi SSW 10.4 mph - N/A   Partly Cloudy
4:15 AM 48.2 °F - 39.2 °F 71% 30.12 in 10.0 mi SSW 9.2 mph - N/A   Mostly Cloudy
4:35 AM 48.2 °F - 39.2 °F 71% 30.11 in 10.0 mi SSW 11.5 mph - N/A   Mostly Cloudy
4:55 AM - - - N/A% 30.11 in 10.0 mi SSW 9.2 mph - N/A   Scattered Clouds
5:15 AM - - - N/A% 30.11 in 10.0 mi South 9.2 mph - N/A   Clear
5:35 AM 48.2 °F - 39.2 °F 71% 30.12 in 10.0 mi South 10.4 mph - N/A   Clear
5:55 AM 48.2 °F - 39.2 °F 71% 30.12 in 10.0 mi South 9.2 mph - N/A   Clear
6:15 AM 48.2 °F - 37.4 °F 66% 30.12 in 10.0 mi SSW 9.2 mph - N/A   Clear
6:35 AM 48.2 °F - 39.2 °F 71% 30.12 in 10.0 mi South 9.2 mph - N/A   Mostly Cloudy
6:55 AM 48.2 °F - 39.2 °F 71% 30.12 in 10.0 mi SSW 10.4 mph - N/A   Overcast
7:15 AM 48.2 °F - 39.2 °F 71% 30.12 in 10.0 mi SSW 9.2 mph - N/A   Overcast
7:35 AM 48.2 °F - 39.2 °F 71% 30.13 in 10.0 mi SSW 9.2 mph - N/A   Mostly Cloudy
7:55 AM 48.2 °F - 39.2 °F 71% 30.13 in 10.0 mi SW 8.1 mph - N/A   Scattered Clouds
8:15 AM 48.2 °F - 39.2 °F 71% 30.14 in 10.0 mi SW 6.9 mph - N/A   Clear
8:35 AM 48.2 °F - 41.0 °F 76% 30.15 in 10.0 mi WSW 5.8 mph - N/A   Clear
8:55 AM 48.2 °F - 41.0 °F 76% 30.16 in 10.0 mi SW 5.8 mph - N/A   Clear
9:15 AM 50.0 °F - 41.0 °F 71% 30.16 in 10.0 mi SW 4.6 mph - N/A   Clear
9:35 AM 50.0 °F - 42.8 °F 76% 30.17 in 10.0 mi SW 5.8 mph - N/A   Clear
9:55 AM 51.8 °F - 42.8 °F 71% 30.18 in 10.0 mi West 3.5 mph - N/A   Clear
10:15 AM 53.6 °F - 44.6 °F 72% 30.18 in 10.0 mi NNW 8.1 mph - N/A   Partly Cloudy
10:35 AM 55.4 °F - 44.6 °F 67% 30.18 in 10.0 mi NNW 11.5 mph - N/A   Partly Cloudy
10:55 AM - - - N/A% 30.18 in 10.0 mi North 16.1 mph - N/A   Partly Cloudy
11:15 AM - - - N/A% 30.18 in 10.0 mi North 17.3 mph - N/A   Partly Cloudy
11:35 AM - - - N/A% 30.19 in 10.0 mi North 17.3 mph 21.9 mph N/A   Clear
11:55 AM - - - N/A% 30.19 in 10.0 mi NNE 13.8 mph - N/A   Partly Cloudy
12:15 PM - - - N/A% 30.19 in 10.0 mi NNE 18.4 mph 21.9 mph N/A   Partly Cloudy
12:35 PM - - - N/A% 30.19 in 10.0 mi North 18.4 mph 25.3 mph N/A   Clear
12:55 PM - - - N/A% 30.18 in 10.0 mi North 21.9 mph 26.5 mph N/A   Partly Cloudy
1:15 PM - - - N/A% 30.19 in 10.0 mi NNE 13.8 mph 24.2 mph N/A   Partly Cloudy
1:35 PM - - - N/A% 30.19 in 10.0 mi NNE 15.0 mph 20.7 mph N/A   Clear
1:55 PM - - - N/A% 30.18 in 10.0 mi NNE 17.3 mph 25.3 mph N/A   Clear
2:15 PM - - - N/A% 30.17 in 10.0 mi NNE 15.0 mph 23.0 mph N/A   Mostly Cloudy
2:35 PM - - - N/A% 30.17 in 10.0 mi North 12.7 mph 21.9 mph N/A   Scattered Clouds
2:55 PM - - - N/A% 30.17 in 10.0 mi NNE 15.0 mph - N/A   Clear
3:15 PM - - - N/A% 30.17 in 10.0 mi North 18.4 mph 21.9 mph N/A   Clear
3:35 PM - - - N/A% 30.16 in 10.0 mi North 16.1 mph 20.7 mph N/A   Clear
3:55 PM - - - N/A% 30.16 in 8.0 mi NNE 15.0 mph 20.7 mph N/A   Clear
4:15 PM - - - N/A% 30.16 in 10.0 mi North 13.8 mph 19.6 mph N/A   Clear
4:35 PM - - - N/A% 30.16 in 10.0 mi North 19.6 mph 24.2 mph N/A   Clear
4:55 PM - - - N/A% 30.16 in 10.0 mi North 17.3 mph 21.9 mph N/A   Clear
5:15 PM - - - N/A% 30.16 in 10.0 mi North 17.3 mph - N/A   Clear
5:35 PM - - - N/A% 30.16 in 10.0 mi North 15.0 mph 20.7 mph N/A   Clear
5:55 PM - - - N/A% 30.16 in 10.0 mi North 15.0 mph - N/A   Clear
6:15 PM - - - N/A% 30.17 in 10.0 mi North 11.5 mph - N/A   Clear
6:35 PM - - - N/A% 30.17 in 10.0 mi North 9.2 mph - N/A   Clear
6:55 PM 48.2 °F - 23.0 °F 37% 30.18 in 10.0 mi North 6.9 mph - N/A   Clear
7:15 PM 46.4 °F 42.9 °F 23.0 °F 40% 30.19 in 10.0 mi North 6.9 mph - N/A   Clear
7:35 PM 46.4 °F 42.9 °F 23.0 °F 40% 30.20 in 10.0 mi North 6.9 mph - N/A   Clear
7:55 PM 44.6 °F 41.4 °F 23.0 °F 43% 30.20 in 10.0 mi North 5.8 mph - N/A   Clear
8:15 PM 44.6 °F 41.4 °F 23.0 °F 43% 30.21 in 10.0 mi North 5.8 mph - N/A   Clear
8:35 PM 46.4 °F 44.3 °F 24.8 °F 43% 30.21 in 10.0 mi North 4.6 mph - N/A   Clear
8:55 PM 44.6 °F 43.1 °F 23.0 °F 43% 30.21 in 10.0 mi North 3.5 mph - N/A   Clear
9:15 PM 46.4 °F 44.3 °F 24.8 °F 43% 30.21 in 10.0 mi North 4.6 mph - N/A   Clear
9:35 PM 44.6 °F 42.2 °F 23.0 °F 43% 30.21 in 10.0 mi North 4.6 mph - N/A   Clear
9:55 PM 44.6 °F 40.7 °F 24.8 °F 46% 30.21 in 10.0 mi North 6.9 mph - N/A   Clear
10:15 PM - - - N/A% 30.20 in 10.0 mi North 5.8 mph - N/A   Clear
10:35 PM 39.2 °F 34.2 °F 23.0 °F 52% 30.21 in 10.0 mi North 6.9 mph - N/A   Clear
10:55 PM 10.4 °F - - N/A% 30.21 in 10.0 mi North - - N/A   Clear
11:15 PM - - - N/A% 30.20 in 10.0 mi North 4.6 mph - N/A   Clear
11:35 PM - - - N/A% 30.20 in 10.0 mi NNE 5.8 mph - N/A   Clear
11:55 PM - - - N/A% 30.19 in 10.0 mi NE 4.6 mph - N/A   Clear